Showing default

FLOCK 4H 14, 66717

Orbit data source: Space-Track

FLOCK 4H 14, 66717 is a payload satellite owned by Planet (US) in SSO that was launched on Fri, 28 Nov 2025 UTC via an FALCON 9 launch vehicle from the Air Force Western Test Range (AFWTR). Payload-class satellites include a variety of spacecraft equipped with specific instruments for various scientific and technological missions. These include communications satellites like Starlink; space stations such as the ISS; scientific satellites like the Hubble; Earth observation satellites from companies like Planet Labs, Umbra, and HawkEye 360; GPS; miniature CubeSats for education and research; and military/defense satellites.

Loading next visibility...
Identifier
66717, 2025-276BD
Orbit
SSO
Country
Flag of USUS
Related business
Manufacturer
Planet
Mission
Operational Commercial Imaging
Bus & Motor
CUBESAT 3U, Unknown motor
Mass
5.7 kg wet, 5.7 kg dry
Launch date (UTC)
2025-11-28 (2 months ago)
Launch vehicle
FALCON 9
Launch site
Air Force Western Test Range (AFWTR)
Object type
Payload
Rocket body
Debris
Shape & HBR
Box + 2 Pan, 1.0 m
Radar Cross Section
0.072 m²

Expand to show TLE details & history
Last TLE update: 14 hours ago

TLE from 14 hours ago
0 FLOCK 4H 14
1 66717U 25276BD  26034.64056298  .00008179  00000-0  39233-3 0  9992
2 66717  97.4348 110.5783 0002168  71.8353 288.3117 15.19142030  9402
Epoch: 2026-02-03T15:22Z
TLE epoch observation values (Epoch: 2026-02-03T15:22:24.641Z)
Latitude
-0.00007°
Longitude
106.15705°
Altitude
511.052 km
Speed
7.609 km/s
True Right ascension
07h 22m 18s
True Declination
0° 00' 00"
Sunlit
Object was in full shadow at epoch
Visualization orbit readout
Latitude
Unknown
Longitude
Unknown
Altitude
Unknown
Speed
Unknown
Apparent Right ascension
Unknown
Apparent Declination
Unknown
Sunlit
N/A
Visualization observer readout
Local Sidereal Time
07:05:31
Azimuth
Unknown
Elevation
Unknown
Doppler factor
Unknown
Orbital elements
Apogee altitude
506.893 km
Perigee altitude
503.908 km
Semi-major axis
6,883.538 km
Eccentricity
0.00022
Inclination
97.4348°
RAAN
110.5783°
Arg. of periapsis
71.8353°
True anomaly
288.28811°
Mean anomaly
288.3117°
Eccentric anomaly
288.29991°
Mean motion
3.80037 °/min
Orbital period
94.73 mins
BSTAR
0.00039233
Loading maneuver chart data...
Computing Atmospheric mass density...
Loading historical data...
Loading historical data...
Loading historical data...
Loading historical data...
Loading historical data...
Loading historical data...
Loading historical data...

Documentation

Showing up to 5 results
|